Weather History for West Plains, MO

Change the Weather History Date:

Monday, March 26, 2012

  Actual Average Record
Temperature  
Mean Temperature 63 °F 51 °F  
Max Temperature 77 °F 63 °F 82 °F (1956)
Min Temperature 49 °F 39 °F 7 °F (1955)
Degree Days  
Heating Degree Days 2 14  
Month to date heating degree days 207 480  
Since 1 July heating degree days 3227 3944  
Cooling Degree Days 0 0  
Month to date cooling degree days 33 0  
Year to date cooling degree days 33 0  
Growing Degree Days 12 (Base 50)    
Moisture  
Dew Point 53 °F    
Average Humidity 72    
Maximum Humidity 100    
Minimum Humidity 43    
Precipitation  
Precipitation 0.00 in 0.15 in 0.88 in (2002)
Month to date precipitation 5.24 3.46  
Year to date precipitation 10.56 9.02  
Sea Level Pressure  
Sea Level Pressure 30.10 in    
Wind  
Wind Speed 4 mph (SE)    
Max Wind Speed 12 mph    
Max Gust Speed 15 mph    
Visibility 7 miles    
Events      
T = Trace of Precipitation, MM = Missing Value Source: NWS Daily Summary

Daily Weather History Graph

Daily Weather History Graph

Search for Another Location

Airport:

Trip Planner

Search our weather history database for the weather conditions in past years. The results will help you decide how hot, cold, wet, or windy it might be!

Date:

Astronomy

Mar. 26, 2012 Rise Set
Actual Time 7:01 AM CDT 7:25 PM CDT
Civil Twilight 6:35 AM CDT 7:51 PM CDT
Nautical Twilight 6:05 AM CDT 8:21 PM CDT
Astronomical Twilight 5:34 AM CDT 8:52 PM CDT
Moon 8:57 AM CDT (3/26) 11:28 PM CDT (3/26)
Length of Visible Light 13h 15m
Length of Day
12h 23m
Waxing Crescent, 15% of the Moon is Illuminated
Mar 26
Waxing Crescent
Mar 30
First Quarter
Apr 6
Full
Apr 13
Last Quarter
Apr 21
New

Hourly Weather History & Observations

Time (CDT) Temp. Dew Point Humidity Pressure Visibility Wind Dir Wind Speed Gust Speed Precip Events Conditions
12:53 AM 60.1 °F 54.0 °F 80% 30.07 in 10.0 mi ESE 4.6 mph - N/A   Clear
1:53 AM 55.9 °F 53.1 °F 90% 30.07 in 8.0 mi Calm Calm - N/A   Clear
2:53 AM 53.1 °F 51.1 °F 93% 30.07 in 5.0 mi Calm Calm - N/A   Clear
3:53 AM 53.1 °F 51.1 °F 93% 30.07 in 6.0 mi Calm Calm - N/A   Clear
4:53 AM 51.1 °F 48.9 °F 92% 30.08 in 5.0 mi Calm Calm - N/A   Clear
5:53 AM 50.0 °F 48.9 °F 96% 30.10 in 6.0 mi Calm Calm - N/A   Clear
6:46 AM 50.0 °F 48.2 °F 94% 30.14 in 1.8 mi Calm Calm - N/A   Clear
6:53 AM 48.9 °F 48.0 °F 97% 30.12 in 1.0 mi Calm Calm - N/A   Clear
7:19 AM 48.2 °F 48.2 °F 100% 30.15 in 1.2 mi Calm Calm - N/A   Partly Cloudy
7:45 AM 51.8 °F 51.8 °F 100% 30.16 in 2.0 mi Calm Calm - N/A   Partly Cloudy
7:53 AM 53.1 °F 52.0 °F 96% 30.14 in 1.8 mi Calm Calm - N/A   Clear
8:13 AM 55.4 °F 53.6 °F 94% 30.16 in 2.5 mi Calm Calm - N/A   Clear
8:20 AM 57.2 °F 53.6 °F 88% 30.16 in 3.0 mi Calm Calm - N/A   Clear
8:53 AM 61.0 °F 55.9 °F 83% 30.15 in 7.0 mi Calm Calm - N/A   Clear
9:53 AM 64.9 °F 55.0 °F 70% 30.15 in 10.0 mi SSE 6.9 mph - N/A   Clear
10:53 AM 68.0 °F 55.0 °F 63% 30.17 in 10.0 mi Variable 4.6 mph - N/A   Clear
11:53 AM 71.1 °F 54.0 °F 55% 30.15 in 10.0 mi SE 5.8 mph - N/A   Clear
12:53 PM 73.0 °F 55.0 °F 53% 30.13 in 10.0 mi SSE 8.1 mph - N/A   Clear
1:53 PM 73.9 °F 54.0 °F 50% 30.11 in 10.0 mi SE 8.1 mph - N/A   Clear
2:53 PM 75.0 °F 54.0 °F 48% 30.08 in 10.0 mi South 8.1 mph - N/A   Clear
3:53 PM 75.9 °F 55.0 °F 48% 30.06 in 10.0 mi South 6.9 mph - N/A   Clear
4:53 PM 75.9 °F 52.0 °F 43% 30.06 in 10.0 mi SSE 9.2 mph - N/A   Clear
5:53 PM 75.9 °F 52.0 °F 43% 30.05 in 10.0 mi South 5.8 mph - N/A   Clear
6:53 PM 73.0 °F 53.1 °F 49% 30.06 in 10.0 mi SE 5.8 mph - N/A   Clear
7:53 PM 70.0 °F 53.1 °F 55% 30.06 in 10.0 mi SE 6.9 mph - N/A   Clear
8:53 PM 66.9 °F 53.1 °F 61% 30.07 in 10.0 mi SE 5.8 mph - N/A   Clear
9:53 PM 66.0 °F 53.1 °F 63% 30.09 in 10.0 mi SE 6.9 mph - N/A   Clear
10:53 PM 64.0 °F 53.1 °F 67% 30.08 in 10.0 mi SE 4.6 mph - N/A   Clear
11:53 PM 62.1 °F 53.1 °F 72% 30.08 in 10.0 mi SE 4.6 mph - N/A   Clear